Regional Weather Roundup
Issued by NWS

Home | Current Version | Previous Version | Text Only | Print | Product List | Glossary Off
Versions: 1 2 3 4 5 6 7 8 9 10 11 12 13 14 15 16 17 18 19 20 21 22 23 24 25 26 27 28 29 30 31 32 33 34 35 36 37 38 39 40 41 42 43 44 45 46 47 48 49 50

976
ASUS43 KLSX 240007
RWRMO

WEATHER SUMMARY FOR MISSOURI
NATIONAL WEATHER SERVICE SPRINGFIELD MO
700 PM CDT SUN APR 23 2017

NOTE: "FAIR" INDICATES FEW OR NO CLOUDS BELOW 12,000 FEET WITH NO
       SIGNIFICANT WEATHER AND/OR OBSTRUCTIONS TO VISIBILITY.
       CURRENT SKY AND/OR WEATHER CONDITIONS ARE NOT AVAILABLE FOR
       CHILLICOTHE AND FARMINGTON.

MOZ001>031-035>038-043-044-053-054-240100-
...NORTHERN AND WESTERN MISSOURI...

CITY           SKY/WX    TMP DP  RH WIND       PRES   REMARKS
KANSAS CTY INT MOSUNNY   67  36  31 S8        30.00F
6HR MIN TEMP:  65; 6HR MAX TEMP:  71;

KANSAS C DTWN  SUNNY     71  28  20 SE8       29.99F
6HR MIN TEMP:  67; 6HR MAX TEMP:  73;

LEE`S SUMMIT   SUNNY     69  31  24 S10       30.01F
6HR MIN TEMP:  64; 6HR MAX TEMP:  71;

ST JOSEPH      SUNNY     69  33  26 S14       29.99S
6HR MIN TEMP:  66; 6HR MAX TEMP:  72;

CHILLICOTHE      N/A     69  32  25 S5        30.01F
6HR MIN TEMP:  68; 6HR MAX TEMP:  73;

KIRKSVILLE     CLEAR     67  33  28 SE6       30.02F
6HR MIN TEMP:  67; 6HR MAX TEMP:  72;


$$
MOZ066>068-077>081-088>096-101>105-240100-
...SOUTHWEST MISSOURI...

CITY           SKY/WX    TMP DP  RH WIND       PRES   REMARKS
SPRINGFIELD    SUNNY     66  34  30 N8        30.03F
6HR MIN TEMP:  64; 6HR MAX TEMP:  69;

JOPLIN         SUNNY     64  40  41 N6        30.06F
6HR MIN TEMP:  63; 6HR MAX TEMP:  68;

BRANSON        PTCLDY    66  36  32 N10       30.04S

$$
MOZ032>034-039>042-045>050-055>058-069>072-240100-
...CENTRAL MISSOURI...

CITY           SKY/WX    TMP DP  RH WIND       PRES   REMARKS
COLUMBIA       CLEAR     68  33  27 NE5       30.03F
6HR MIN TEMP:  67; 6HR MAX TEMP:  73;

JEFFERSON CITY CLEAR     73  28  18 VRB5      30.02F
6HR MIN TEMP:  68; 6HR MAX TEMP:  75;

ROLLA          CLEAR     66  37  34 N6        30.02S
6HR MIN TEMP:  63; 6HR MAX TEMP:  70;

WHITEMAN AFB   SUNNY     66  36  32 SE3       30.01F

$$
MOZ051-052-059>065-240100-
...EAST CENTRAL MISSOURI...

CITY           SKY/WX    TMP DP  RH WIND       PRES   REMARKS
ST LOUIS INTL  PTCLDY    70  30  22 N10       30.00F
6HR MIN TEMP:  68; 6HR MAX TEMP:  74;

SPIRIT OF STL  PTCLDY    69  30  23 N6        30.00F
6HR MIN TEMP:  66; 6HR MAX TEMP:  73;

ST CHARLES     CLEAR     69  29  22 N10       30.00F
6HR MIN TEMP:  68; 6HR MAX TEMP:  73;


$$
MOZ072>076-082>087-097>100-106>115-240100-
...SOUTH CENTRAL AND SOUTHEAST MISSOURI...

CITY           SKY/WX    TMP DP  RH WIND       PRES   REMARKS
CAPE GIRARDEAU CLEAR     66  38  35 N10       29.93S
6HR MIN TEMP:  63; 6HR MAX TEMP:  69;

FARMINGTON     CLEAR     66  35  31 N6        30.00S
6HR MIN TEMP:  62; 6HR MAX TEMP:  69;

POPLAR BLUFF   CLEAR     67  40  37 NE8       29.95R
6HR MIN TEMP:  64; 6HR MAX TEMP:  69;

WEST PLAINS    CLEAR     67  29  24 N8        30.01S
6HR MIN TEMP:  65; 6HR MAX TEMP:  71;


$$



USA.gov is the U.S. government's official web portal to all federal, state and local government web resources and services.